Regional Weather Roundup
Issued by NWS

Home | Current Version | Previous Version | Text Only | Print | Product List | Glossary Off
Versions: 1 2 3 4 5 6 7 8 9 10 11 12 13 14 15 16 17 18 19 20 21 22 23 24 25 26 27 28 29 30 31 32 33 34 35 36 37 38 39 40 41 42 43 44 45 46 47 48 49 50

000
ASUS45 KBOU 191307
RWRCO

WEATHER ROUNDUP FOR COLORADO
NATIONAL WEATHER SERVICE DENVER/BOULDER CO
600 AM MST SUN FEB 19 2017

NOTE: "FAIR" INDICATES FEW OR NO CLOUDS BELOW 12000 FEET WITH NO
SIGNIFICANT WEATHER AND/OR OBSTRUCTIONS TO VISIBILITY.

COZ001>005-013-030-031-191400-
...NORTHWEST COLORADO...

CITY           SKY/WX    TMP DP  RH WIND       PRES   REMARKS
CRAIG          MOCLDY    28  25  88 CALM      29.75F
HAYDEN         FAIR      30  25  80 SE12      29.75F WCI  21
MEEKER         MOCLDY    31  29  92 N7        29.73F WCI  24
MOUNT WERNER   NOT AVBL
STEAMBOAT SPGS NOT AVBL
WALDEN         NOT AVBL
$$

COZ006>008-011-191400-
...WEST CENTRAL VALLEYS...

CITY           SKY/WX    TMP DP  RH WIND       PRES   REMARKS
GRAND JUNCTION FAIR      37  35  92 E9        29.69F
MONTROSE       FAIR      30  28  92 SE6       29.75F WCI  24
EAGLE          FAIR      27  26  96 SE3       29.80F
RIFLE          FAIR      30  28  92 E5        29.74F WCI  25
DELTA          FAIR      32  31  94 CALM      29.73F
NUCLA          CLOUDY    34  32  93 SE5       29.76S WCI  30
$$

COZ017>023-064>068-191400-
...SOUTHWEST COLORADO...

CITY           SKY/WX    TMP DP  RH WIND       PRES   REMARKS
DURANGO        LGT RAIN  38  32  79 S12       29.81R
CORTEZ         LGT RAIN  41  36  82 S5        29.77R
PAGOSA SPRINGS LGT SNOW  37  30  78 CALM      29.85S
TELLURIDE      FAIR      37  21  53 SW3       29.80R
WOLF CREEK PAS LGT SNOW  21  21 100 S12       29.93S VSB 3/4 WCI   9
$$

COZ009-010-012-014-032>034-037-058>063-191400-
...CENTRAL COLORADO...

CITY           SKY/WX    TMP DP  RH WIND       PRES   REMARKS
ASPEN          FAIR      25  22  88 CALM      29.75F
BUENA VISTA    FAIR      32  26  79 N6        29.79F WCI  26
COPPER MTN     FAIR      30  12  47 S22       29.86F WCI  17
BERTHOUD PASS  FAIR      21  12  68 W15G25    29.86S WCI   8
COTTONWOOD PAS FAIR      36  18  48 W8        29.83F
GUNNISON       FAIR      21  17  84 CALM      29.82R
KREMMLING      FAIR      27  23  86 SE3       29.82S
LEADVILLE      FAIR      24  18  77 S3        29.81S
MONARCH PASS   FAIR      25  18  74 S21       29.99S WCI  10
SALIDA         FAIR      42  24  48 W5        29.86S
SUNLIGHT       NOT AVBL
WILKERSON PASS FAIR      27  19  74 SW20G29   29.84F WCI  13
$$

COZ069>075-191400-
...SAN LUIS VALLEY/SANGRE DE CRISTO MOUNTAINS...

CITY           SKY/WX    TMP DP  RH WIND       PRES   REMARKS
ALAMOSA        CLOUDY    34  27  75 SE5       29.84R WCI  30
LA VETA PASS   FAIR      32  23  69 NE23G30   29.86R WCI  19
SAGUACHE       CLOUDY    32  28  86 N5        29.86R WCI  27
$$

COZ035-036-038>040-191400-
...NORTHERN COLORADO FRONT RANGE...

CITY           SKY/WX    TMP DP  RH WIND       PRES   REMARKS
DENVER INTL AP FAIR      42  22  44 W6        29.66S
DMNS CITY PARK   N/A     38  24  56 N6        29.66S
AURORA         PTCLDY    42  24  49 S10       29.67F
FRONT RANGE AP NOT AVBL
ERIE MUNI ARPT FAIR      28  24  82 CALM      29.67S
BOULDER MUN AP FAIR      36  25  64 SW3       29.67S
CENTENNIAL     MOCLDY    45  24  43 SW12      29.67F
BROOMFIELD     MOCLDY    43  21  42 N5        29.68S
FORT COLLINS   FAIR      35  25  66 SW3       29.68R
LONGMONT       FAIR      32  24  72 CALM      29.70R
$$

COZ041-046-047-076>085-087-088-191400-
...PIKES PEAK/PALMER DIVIDE AND SOUTHERN FOOTHILLS...

CITY           SKY/WX    TMP DP  RH WIND       PRES   REMARKS
COLO. SPRINGS  MOCLDY    34  23  64 NE6       29.74R WCI  29
A. F. ACADEMY  MOCLDY    31  21  65 NE5       29.72S WCI  26
SCHRIEVER AFB  FAIR      36  24  62 NE6       29.75R
ELLICOTT       FAIR     N/A N/A N/A S9        29.73R
FALCON         NOT AVBL
FORT CARSON    FAIR      36  21  56 NW5       29.73R
LIMON          FAIR      34  26  72 E5        29.73R WCI  30
MONUMENT HILL  FAIR      32  23  69 S10       29.74F WCI  24
TRINIDAD       FAIR      51  26  37 W8        29.75R
$$

COZ042>045-048>051-090-091-191400-
...NORTHEAST COLORADO...

CITY           SKY/WX    TMP DP  RH WIND       PRES   REMARKS
GREELEY ARPT   FAIR      29  21  72 NW7       29.69R WCI  22
AKRON          FAIR      48  28  46 S16       29.65R
BURLINGTON     FAIR      50  34  54 S18       29.69R
WRAY           NOT AVBL
STERLING       FAIR      32  25  74 W3        29.65R
HOLYOKE        FAIR      37  32  81 CALM      29.67R
FORT MORGAN    FAIR      31  21  68 CALM      29.67S
$$

COZ086-089-092>099-191400-
...SOUTHEAST COLORADO...

CITY           SKY/WX    TMP DP  RH WIND       PRES   REMARKS
PUEBLO         FAIR      32  24  72 CALM      29.71R
LA JUNTA       FAIR      51  31  46 S7        29.72R
LAMAR          FAIR      47  34  60 SE17      29.72S
SPRINGFIELD      N/A     45  35  68 S13       29.76R
$$



USA.gov is the U.S. government's official web portal to all federal, state and local government web resources and services.